Time,TemperatureF,DewpointF,PressureIn,WindDirection,WindDirectionDegrees,WindSpeedMPH,WindSpeedGustMPH,Humidity,HourlyPrecipIn,Conditions,Clouds,dailyrainin,SoftwareType,DateUTC
2013-05-01 00:01:00,55.8,51.0,29.80,North,360,0.0,0.0,84,0.00,,---,0.00,VWS V14.01,2013-05-01 04:01:00,
2013-05-01 00:06:00,55.6,50.8,29.80,North,360,0.0,2.0,84,0.00,,---,0.00,VWS V14.01,2013-05-01 04:06:00,
2013-05-01 00:11:00,55.4,51.0,29.80,North,360,0.0,2.0,85,0.00,,---,0.00,VWS V14.01,2013-05-01 04:11:00,
2013-05-01 00:16:00,55.1,50.7,29.80,North,360,0.0,3.0,85,0.00,,---,0.00,VWS V14.01,2013-05-01 04:16:00,
2013-05-01 00:21:00,55.1,50.7,29.80,North,360,0.0,3.0,85,0.00,,---,0.00,VWS V14.01,2013-05-01 04:21:00,
2013-05-01 00:26:00,55.1,50.7,29.80,North,360,0.0,3.0,85,0.00,,---,0.00,VWS V14.01,2013-05-01 04:26:00,
2013-05-01 00:31:00,55.4,51.0,29.80,North,360,0.0,3.0,85,0.00,,---,0.00,VWS V14.01,2013-05-01 04:31:00,
2013-05-01 00:36:00,55.7,51.0,29.80,North,360,1.0,3.0,84,0.00,,---,0.00,VWS V14.01,2013-05-01 04:36:00,
2013-05-01 00:41:00,55.9,51.1,29.80,North,360,1.0,3.0,84,0.00,,---,0.00,VWS V14.01,2013-05-01 04:41:00,
2013-05-01 00:46:00,56.1,51.0,29.81,North,360,0.0,3.0,83,0.00,,---,0.00,VWS V14.01,2013-05-01 04:46:00,
2013-05-01 00:51:00,56.0,50.6,29.81,North,360,0.0,3.0,82,0.00,,---,0.00,VWS V14.01,2013-05-01 04:51:00,
2013-05-01 00:56:00,55.9,51.1,29.81,North,360,1.0,3.0,84,0.00,,---,0.00,VWS V14.01,2013-05-01 04:56:00,
2013-05-01 01:01:00,56.2,51.1,29.82,North,360,0.0,3.0,83,0.00,,---,0.00,VWS V14.01,2013-05-01 05:01:00,
2013-05-01 01:06:00,56.3,51.2,29.82,North,360,0.0,3.0,83,0.00,,---,0.00,VWS V14.01,2013-05-01 05:06:00,
2013-05-01 01:11:00,55.7,50.0,29.82,North,360,0.0,3.0,81,0.00,,---,0.00,VWS V14.01,2013-05-01 05:11:00,
2013-05-01 01:16:00,55.6,50.8,29.82,North,360,0.0,3.0,84,0.00,,---,0.00,VWS V14.01,2013-05-01 05:16:00,
2013-05-01 01:21:00,55.3,48.9,29.84,North,360,0.0,3.0,79,0.00,,---,0.00,VWS V14.01,2013-05-01 05:21:00,
2013-05-01 01:26:00,54.2,47.5,29.87,North,360,2.0,3.0,78,0.00,,---,0.00,VWS V14.01,2013-05-01 05:26:00,
2013-05-01 01:31:00,53.0,47.7,29.89,North,360,3.0,16.0,82,0.00,,---,0.00,VWS V14.01,2013-05-01 05:31:00,
2013-05-01 01:36:00,52.4,47.4,29.90,North,360,3.0,16.0,83,0.00,,---,0.00,VWS V14.01,2013-05-01 05:36:00,
2013-05-01 01:41:00,52.1,46.8,29.91,North,360,3.0,16.0,82,0.00,,---,0.00,VWS V14.01,2013-05-01 05:41:00,
2013-05-01 01:46:00,51.2,46.2,29.93,WNW,298,3.0,16.0,83,0.02,,---,0.02,VWS V14.01,2013-05-01 05:46:00,
2013-05-01 01:51:00,50.5,46.8,29.93,WNW,283,4.0,16.0,87,0.02,,---,0.02,VWS V14.01,2013-05-01 05:51:00,
2013-05-01 01:56:00,50.8,47.7,29.93,WNW,283,2.0,16.0,89,0.05,,---,0.05,VWS V14.01,2013-05-01 05:56:00,
2013-05-01 02:01:00,51.1,48.0,29.93,WNW,295,3.0,4.0,89,0.00,,---,0.06,VWS V14.01,2013-05-01 06:01:00,
2013-05-01 02:06:00,51.1,47.7,29.91,NW,318,1.0,6.0,88,0.00,,---,0.06,VWS V14.01,2013-05-01 06:06:00,
2013-05-01 02:11:00,51.1,47.7,29.91,North,360,2.0,6.0,88,0.00,,---,0.06,VWS V14.01,2013-05-01 06:11:00,
2013-05-01 02:16:00,51.4,48.3,29.91,North,360,0.0,6.0,89,0.00,,---,0.06,VWS V14.01,2013-05-01 06:16:00,
2013-05-01 02:21:00,51.5,48.4,29.91,North,360,0.0,6.0,89,0.00,,---,0.06,VWS V14.01,2013-05-01 06:21:00,
2013-05-01 02:26:00,51.6,48.5,29.90,North,360,0.0,6.0,89,0.00,,---,0.06,VWS V14.01,2013-05-01 06:26:00,
2013-05-01 02:31:00,51.7,48.6,29.89,North,360,0.0,6.0,89,0.00,,---,0.06,VWS V14.01,2013-05-01 06:31:00,
2013-05-01 02:36:00,51.9,48.8,29.88,North,360,2.0,6.0,89,0.00,,---,0.06,VWS V14.01,2013-05-01 06:36:00,
2013-05-01 02:41:00,52.1,49.3,29.89,North,360,0.0,6.0,90,0.00,,---,0.06,VWS V14.01,2013-05-01 06:41:00,
2013-05-01 02:46:00,51.9,49.1,29.91,North,360,0.0,6.0,90,0.00,,---,0.06,VWS V14.01,2013-05-01 06:46:00,
2013-05-01 02:51:00,51.9,49.4,29.94,North,360,1.0,6.0,91,0.00,,---,0.06,VWS V14.01,2013-05-01 06:51:00,
2013-05-01 02:56:00,52.0,49.5,29.94,North,360,0.0,6.0,91,0.06,,---,0.12,VWS V14.01,2013-05-01 06:56:00,
2013-05-01 03:01:00,51.9,49.4,29.93,North,360,0.0,6.0,91,0.08,,---,0.14,VWS V14.01,2013-05-01 07:01:00,
2013-05-01 03:06:00,51.9,49.4,29.93,North,360,2.0,6.0,91,0.08,,---,0.14,VWS V14.01,2013-05-01 07:06:00,
2013-05-01 03:11:00,51.8,49.5,29.92,North,360,0.0,6.0,92,0.11,,---,0.17,VWS V14.01,2013-05-01 07:11:00,
2013-05-01 03:16:00,51.8,49.5,29.92,North,360,1.0,6.0,92,0.12,,---,0.18,VWS V14.01,2013-05-01 07:16:00,
2013-05-01 03:21:00,51.8,49.5,29.93,North,360,0.0,6.0,92,0.12,,---,0.18,VWS V14.01,2013-05-01 07:21:00,
2013-05-01 03:26:00,51.8,49.8,29.94,North,360,0.0,6.0,93,0.13,,---,0.19,VWS V14.01,2013-05-01 07:26:00,
2013-05-01 03:31:00,51.8,49.8,29.94,North,360,0.0,6.0,93,0.13,,---,0.19,VWS V14.01,2013-05-01 07:31:00,
2013-05-01 03:36:00,51.8,49.8,29.95,North,360,0.0,6.0,93,0.14,,---,0.20,VWS V14.01,2013-05-01 07:36:00,
2013-05-01 03:41:00,51.8,49.8,29.95,North,360,0.0,6.0,93,0.15,,---,0.21,VWS V14.01,2013-05-01 07:41:00,
2013-05-01 03:46:00,51.9,49.9,29.96,North,360,0.0,6.0,93,0.16,,---,0.22,VWS V14.01,2013-05-01 07:46:00,
2013-05-01 03:51:00,51.8,49.8,29.95,North,360,0.0,6.0,93,0.16,,---,0.22,VWS V14.01,2013-05-01 07:51:00,
2013-05-01 03:56:00,51.9,49.9,29.96,North,360,0.0,6.0,93,0.16,,---,0.22,VWS V14.01,2013-05-01 07:56:00,
2013-05-01 04:01:00,51.9,49.9,29.96,North,360,0.0,1.0,93,0.00,,---,0.22,VWS V14.01,2013-05-01 08:01:00,
2013-05-01 04:06:00,51.9,49.9,29.96,North,360,0.0,1.0,93,0.00,,---,0.22,VWS V14.01,2013-05-01 08:06:00,
2013-05-01 04:11:00,51.9,49.9,29.95,North,360,0.0,1.0,93,0.00,,---,0.22,VWS V14.01,2013-05-01 08:11:00,
2013-05-01 04:16:00,51.8,49.8,29.95,North,360,0.0,1.0,93,0.00,,---,0.22,VWS V14.01,2013-05-01 08:16:00,
2013-05-01 04:21:00,51.8,49.8,29.94,North,360,2.0,2.0,93,0.00,,---,0.22,VWS V14.01,2013-05-01 08:21:00,
2013-05-01 04:26:00,51.5,49.5,29.96,North,360,0.0,3.0,93,0.01,,---,0.23,VWS V14.01,2013-05-01 08:26:00,
2013-05-01 04:31:00,51.4,49.5,29.95,North,360,0.0,3.0,93,0.01,,---,0.23,VWS V14.01,2013-05-01 08:31:00,
2013-05-01 04:36:00,51.4,49.5,29.94,North,360,1.0,3.0,93,0.01,,---,0.23,VWS V14.01,2013-05-01 08:36:00,
2013-05-01 04:41:00,51.2,49.2,29.93,North,360,0.0,3.0,93,0.01,,---,0.23,VWS V14.01,2013-05-01 08:41:00,
2013-05-01 04:46:00,50.8,48.6,29.93,North,360,0.0,3.0,92,0.01,,---,0.23,VWS V14.01,2013-05-01 08:46:00,
2013-05-01 04:51:00,50.4,48.2,29.94,North,360,3.0,5.0,92,0.01,,---,0.23,VWS V14.01,2013-05-01 08:51:00,
2013-05-01 04:56:00,50.3,48.4,29.94,North,360,4.0,6.0,93,0.01,,---,0.23,VWS V14.01,2013-05-01 08:56:00,
2013-05-01 05:01:00,50.3,48.4,29.93,North,360,0.0,6.0,93,0.01,,---,0.23,VWS V14.01,2013-05-01 09:01:00,
2013-05-01 05:06:00,50.3,48.6,29.94,North,360,2.0,6.0,94,0.01,,---,0.23,VWS V14.01,2013-05-01 09:06:00,
2013-05-01 05:11:00,50.1,48.4,29.94,North,360,4.0,6.0,94,0.01,,---,0.23,VWS V14.01,2013-05-01 09:11:00,
2013-05-01 05:16:00,50.1,48.2,29.96,North,360,0.0,6.0,93,0.01,,---,0.23,VWS V14.01,2013-05-01 09:16:00,
2013-05-01 05:21:00,50.1,48.4,29.97,North,360,0.0,6.0,94,0.01,,---,0.23,VWS V14.01,2013-05-01 09:21:00,
2013-05-01 05:26:00,50.1,48.4,29.97,North,360,0.0,6.0,94,0.01,,---,0.23,VWS V14.01,2013-05-01 09:26:00,
2013-05-01 05:31:00,50.0,48.3,29.96,North,360,0.0,6.0,94,0.01,,---,0.23,VWS V14.01,2013-05-01 09:31:00,
2013-05-01 05:36:00,49.9,48.2,29.96,North,360,0.0,6.0,94,0.01,,---,0.23,VWS V14.01,2013-05-01 09:36:00,
2013-05-01 05:41:00,49.9,48.2,29.98,North,360,0.0,6.0,94,0.01,,---,0.23,VWS V14.01,2013-05-01 09:41:00,
2013-05-01 05:46:00,50.0,48.3,29.98,North,360,0.0,6.0,94,0.01,,---,0.23,VWS V14.01,2013-05-01 09:46:00,
2013-05-01 05:51:00,50.0,48.3,29.98,North,360,0.0,6.0,94,0.01,,---,0.23,VWS V14.01,2013-05-01 09:51:00,
2013-05-01 05:56:00,50.1,48.4,29.98,North,360,0.0,6.0,94,0.01,,---,0.23,VWS V14.01,2013-05-01 09:56:00,
2013-05-01 06:01:00,50.1,48.4,29.97,North,360,1.0,1.0,94,0.00,,---,0.23,VWS V14.01,2013-05-01 10:01:00,
2013-05-01 06:06:00,50.1,48.4,29.97,North,360,0.0,1.0,94,0.00,,---,0.23,VWS V14.01,2013-05-01 10:06:00,
2013-05-01 06:11:00,50.1,48.4,29.96,North,360,0.0,1.0,94,0.00,,---,0.23,VWS V14.01,2013-05-01 10:11:00,
2013-05-01 06:16:00,50.1,48.4,29.96,North,360,0.0,1.0,94,0.00,,---,0.23,VWS V14.01,2013-05-01 10:16:00,
2013-05-01 06:21:00,50.0,48.3,29.97,North,360,0.0,1.0,94,0.00,,---,0.23,VWS V14.01,2013-05-01 10:21:00,
2013-05-01 06:26:00,50.0,48.3,29.98,North,360,0.0,1.0,94,0.00,,---,0.23,VWS V14.01,2013-05-01 10:26:00,
2013-05-01 06:31:00,50.0,48.3,29.98,North,360,0.0,1.0,94,0.00,,---,0.23,VWS V14.01,2013-05-01 10:31:00,
2013-05-01 06:36:00,49.9,48.2,29.98,North,360,0.0,1.0,94,0.00,,---,0.23,VWS V14.01,2013-05-01 10:36:00,
2013-05-01 06:41:00,49.9,48.2,30.00,North,360,0.0,1.0,94,0.00,,---,0.23,VWS V14.01,2013-05-01 10:41:00,
2013-05-01 06:46:00,49.8,48.2,30.00,North,360,0.0,2.0,94,0.00,,---,0.23,VWS V14.01,2013-05-01 10:46:00,
2013-05-01 06:51:00,49.8,48.2,30.01,North,360,0.0,2.0,94,0.00,,---,0.23,VWS V14.01,2013-05-01 10:51:00,
2013-05-01 06:56:00,49.8,48.2,30.01,North,360,0.0,2.0,94,0.00,,---,0.23,VWS V14.01,2013-05-01 10:56:00,
2013-05-01 07:01:00,49.8,48.2,30.02,North,360,0.0,2.0,94,0.00,,---,0.23,VWS V14.01,2013-05-01 11:01:00,
2013-05-01 07:06:00,49.7,48.0,30.03,North,360,0.0,2.0,94,0.00,,---,0.23,VWS V14.01,2013-05-01 11:06:00,
2013-05-01 07:11:00,49.7,48.0,30.03,North,360,0.0,2.0,94,0.00,,---,0.23,VWS V14.01,2013-05-01 11:11:00,
2013-05-01 07:16:00,49.7,48.0,30.03,North,360,0.0,2.0,94,0.00,,---,0.23,VWS V14.01,2013-05-01 11:16:00,
2013-05-01 07:21:00,49.7,48.0,30.04,North,360,0.0,2.0,94,0.00,,---,0.23,VWS V14.01,2013-05-01 11:21:00,
2013-05-01 07:26:00,49.6,48.0,30.05,North,360,0.0,2.0,94,0.00,,---,0.23,VWS V14.01,2013-05-01 11:26:00,
2013-05-01 07:31:00,49.6,48.0,30.05,North,360,0.0,2.0,94,0.00,,---,0.23,VWS V14.01,2013-05-01 11:31:00,
2013-05-01 07:36:00,49.7,48.0,30.05,North,360,0.0,2.0,94,0.00,,---,0.23,VWS V14.01,2013-05-01 11:36:00,
2013-05-01 07:41:00,49.7,48.0,30.05,North,360,0.0,2.0,94,0.00,,---,0.23,VWS V14.01,2013-05-01 11:41:00,
2013-05-01 07:46:00,49.7,48.0,30.05,North,360,0.0,2.0,94,0.00,,---,0.23,VWS V14.01,2013-05-01 11:46:00,
2013-05-01 07:51:00,48.7,46.8,30.06,North,360,0.0,2.0,93,0.00,,---,0.23,VWS V14.01,2013-05-01 11:51:00,
2013-05-01 07:56:00,48.2,46.3,30.07,North,360,0.0,2.0,93,0.00,,---,0.23,VWS V14.01,2013-05-01 11:56:00,
2013-05-01 08:01:00,47.9,46.0,30.07,North,360,0.0,0.0,93,0.00,,---,0.23,VWS V14.01,2013-05-01 12:01:00,
2013-05-01 08:06:00,47.4,45.5,30.07,North,360,2.0,4.0,93,0.00,,---,0.23,VWS V14.01,2013-05-01 12:06:00,
2013-05-01 08:11:00,47.2,45.3,30.07,North,360,0.0,4.0,93,0.00,,---,0.23,VWS V14.01,2013-05-01 12:11:00,
2013-05-01 08:16:00,47.3,45.7,30.07,North,360,0.0,4.0,94,0.00,,---,0.23,VWS V14.01,2013-05-01 12:16:00,
2013-05-01 08:21:00,47.8,46.2,30.08,North,360,0.0,4.0,94,0.00,,---,0.23,VWS V14.01,2013-05-01 12:21:00,
2013-05-01 08:26:00,48.6,47.2,30.07,North,360,0.0,4.0,95,0.00,,---,0.23,VWS V14.01,2013-05-01 12:26:00,
2013-05-01 08:31:00,49.3,47.9,30.08,North,360,0.0,4.0,95,0.00,,---,0.23,VWS V14.01,2013-05-01 12:31:00,
2013-05-01 08:36:00,49.7,48.3,30.08,North,360,0.0,4.0,95,0.00,,---,0.23,VWS V14.01,2013-05-01 12:36:00,
2013-05-01 08:41:00,50.0,48.6,30.08,North,360,0.0,4.0,95,0.00,,---,0.23,VWS V14.01,2013-05-01 12:41:00,
2013-05-01 08:46:00,50.5,49.1,30.08,North,360,1.0,4.0,95,0.00,,---,0.23,VWS V14.01,2013-05-01 12:46:00,
2013-05-01 08:51:00,51.0,49.3,30.07,North,360,0.0,4.0,94,0.00,,---,0.23,VWS V14.01,2013-05-01 12:51:00,
2013-05-01 08:56:00,51.5,49.3,30.08,North,360,0.0,4.0,92,0.00,,---,0.23,VWS V14.01,2013-05-01 12:56:00,
2013-05-01 09:01:00,52.0,49.2,30.08,North,360,0.0,4.0,90,0.00,,---,0.23,VWS V14.01,2013-05-01 13:01:00,
2013-05-01 09:06:00,52.3,48.9,30.08,North,360,0.0,6.0,88,0.00,,---,0.23,VWS V14.01,2013-05-01 13:06:00,
2013-05-01 09:11:00,52.5,48.8,30.08,North,360,0.0,6.0,87,0.00,,---,0.23,VWS V14.01,2013-05-01 13:11:00,
2013-05-01 09:16:00,52.6,47.9,30.08,North,360,4.0,6.0,84,0.00,,---,0.23,VWS V14.01,2013-05-01 13:16:00,
2013-05-01 09:21:00,52.6,47.6,30.08,North,360,1.0,6.0,83,0.00,,---,0.23,VWS V14.01,2013-05-01 13:21:00,
2013-05-01 09:26:00,52.2,46.9,30.08,North,360,4.0,6.0,82,0.00,,---,0.23,VWS V14.01,2013-05-01 13:26:00,
2013-05-01 09:31:00,52.2,46.5,30.08,North,360,0.0,6.0,81,0.00,,---,0.23,VWS V14.01,2013-05-01 13:31:00,
2013-05-01 09:36:00,52.3,46.0,30.08,North,360,4.0,6.0,79,0.00,,---,0.23,VWS V14.01,2013-05-01 13:36:00,
2013-05-01 09:41:00,52.3,45.7,30.08,North,360,5.0,6.0,78,0.00,,---,0.23,VWS V14.01,2013-05-01 13:41:00,
2013-05-01 09:46:00,52.3,45.7,30.09,North,360,4.0,6.0,78,0.00,,---,0.23,VWS V14.01,2013-05-01 13:46:00,
2013-05-01 09:51:00,52.4,45.8,30.09,North,360,0.0,6.0,78,0.00,,---,0.23,VWS V14.01,2013-05-01 13:51:00,
2013-05-01 09:56:00,52.5,44.8,30.09,North,360,6.0,6.0,75,0.00,,---,0.23,VWS V14.01,2013-05-01 13:56:00,
2013-05-01 10:01:00,52.5,44.8,30.10,North,360,5.0,8.0,75,0.00,,---,0.23,VWS V14.01,2013-05-01 14:01:00,
2013-05-01 10:06:00,52.3,44.3,30.10,North,360,3.0,8.0,74,0.00,,---,0.23,VWS V14.01,2013-05-01 14:06:00,
2013-05-01 10:11:00,52.3,44.6,30.10,North,360,3.0,8.0,75,0.00,,---,0.23,VWS V14.01,2013-05-01 14:11:00,
2013-05-01 10:16:00,52.2,44.2,30.11,North,360,3.0,8.0,74,0.00,,---,0.23,VWS V14.01,2013-05-01 14:16:00,
2013-05-01 10:21:00,52.1,44.4,30.11,North,360,4.0,8.0,75,0.00,,---,0.23,VWS V14.01,2013-05-01 14:21:00,
2013-05-01 10:26:00,52.1,43.7,30.11,North,360,8.0,9.0,73,0.00,,---,0.23,VWS V14.01,2013-05-01 14:26:00,
2013-05-01 10:31:00,52.1,43.4,30.12,North,360,6.0,9.0,72,0.00,,---,0.23,VWS V14.01,2013-05-01 14:31:00,
2013-05-01 10:36:00,52.1,43.4,30.12,North,360,5.0,9.0,72,0.00,,---,0.23,VWS V14.01,2013-05-01 14:36:00,
2013-05-01 10:41:00,52.1,43.7,30.12,North,360,6.0,9.0,73,0.00,,---,0.23,VWS V14.01,2013-05-01 14:41:00,
2013-05-01 10:46:00,52.1,43.4,30.13,North,360,8.0,12.0,72,0.00,,---,0.23,VWS V14.01,2013-05-01 14:46:00,
2013-05-01 10:51:00,52.0,42.9,30.13,North,360,11.0,12.0,71,0.00,,---,0.23,VWS V14.01,2013-05-01 14:51:00,
2013-05-01 10:56:00,51.9,42.4,30.14,North,360,5.0,13.0,70,0.00,,---,0.23,VWS V14.01,2013-05-01 14:56:00,
2013-05-01 11:01:00,51.7,42.6,30.15,North,360,10.0,13.0,71,0.00,,---,0.23,VWS V14.01,2013-05-01 15:01:00,
2013-05-01 11:06:00,51.4,42.7,30.15,North,360,8.0,13.0,72,0.00,,---,0.23,VWS V14.01,2013-05-01 15:06:00,
2013-05-01 11:11:00,51.1,42.8,30.15,North,360,7.0,13.0,73,0.00,,---,0.23,VWS V14.01,2013-05-01 15:11:00,
2013-05-01 11:16:00,50.7,42.7,30.16,North,360,5.0,13.0,74,0.00,,---,0.23,VWS V14.01,2013-05-01 15:16:00,
2013-05-01 11:21:00,50.2,42.2,30.16,North,360,5.0,14.0,74,0.00,,---,0.23,VWS V14.01,2013-05-01 15:21:00,
2013-05-01 11:26:00,49.5,41.6,30.17,North,360,7.0,15.0,74,0.00,,---,0.23,VWS V14.01,2013-05-01 15:26:00,
2013-05-01 11:31:00,48.6,41.0,30.17,North,360,9.0,15.0,75,0.00,,---,0.23,VWS V14.01,2013-05-01 15:31:00,
2013-05-01 11:36:00,47.5,40.3,30.17,North,360,8.0,15.0,76,0.00,,---,0.23,VWS V14.01,2013-05-01 15:36:00,
2013-05-01 11:41:00,46.3,39.8,30.17,North,360,4.0,15.0,78,0.00,,---,0.23,VWS V14.01,2013-05-01 15:41:00,
2013-05-01 11:46:00,45.3,39.5,30.18,North,360,3.0,15.0,80,0.00,,---,0.23,VWS V14.01,2013-05-01 15:46:00,
2013-05-01 11:51:00,44.6,39.1,30.18,North,360,3.0,15.0,81,0.00,,---,0.23,VWS V14.01,2013-05-01 15:51:00,
2013-05-01 11:56:00,44.1,39.0,30.18,North,360,9.0,15.0,82,0.00,,---,0.23,VWS V14.01,2013-05-01 15:56:00,
2013-05-01 12:01:00,43.5,37.8,30.18,North,360,5.0,10.0,80,0.00,,---,0.23,VWS V14.01,2013-05-01 16:01:00,
2013-05-01 12:06:00,43.2,37.5,30.18,North,360,11.0,12.0,80,0.00,,---,0.23,VWS V14.01,2013-05-01 16:06:00,
2013-05-01 12:11:00,42.8,37.1,30.18,North,360,7.0,12.0,80,0.00,,---,0.23,VWS V14.01,2013-05-01 16:11:00,
2013-05-01 12:16:00,42.7,37.0,30.18,North,360,8.0,14.0,80,0.00,,---,0.23,VWS V14.01,2013-05-01 16:16:00,
2013-05-01 12:21:00,42.5,36.8,30.18,North,360,7.0,14.0,80,0.00,,---,0.23,VWS V14.01,2013-05-01 16:21:00,
2013-05-01 12:26:00,42.5,37.1,30.19,North,360,8.0,14.0,81,0.00,,---,0.23,VWS V14.01,2013-05-01 16:26:00,
2013-05-01 12:31:00,42.5,37.1,30.19,North,360,9.0,14.0,81,0.00,,---,0.23,VWS V14.01,2013-05-01 16:31:00,
2013-05-01 12:36:00,42.4,37.3,30.19,North,360,14.0,14.0,82,0.00,,---,0.23,VWS V14.01,2013-05-01 16:36:00,
2013-05-01 12:41:00,42.3,37.2,30.20,North,360,6.0,17.0,82,0.00,,---,0.23,VWS V14.01,2013-05-01 16:41:00,
2013-05-01 12:46:00,42.2,37.1,30.20,North,360,9.0,17.0,82,0.00,,---,0.23,VWS V14.01,2013-05-01 16:46:00,
2013-05-01 12:51:00,42.1,37.3,30.20,North,360,6.0,17.0,83,0.00,,---,0.23,VWS V14.01,2013-05-01 16:51:00,
2013-05-01 12:56:00,41.9,37.1,30.21,North,360,12.0,17.0,83,0.00,,---,0.23,VWS V14.01,2013-05-01 16:56:00,
2013-05-01 13:01:00,41.6,36.8,30.20,North,360,10.0,17.0,83,0.00,,---,0.23,VWS V14.01,2013-05-01 17:01:00,
2013-05-01 13:06:00,41.6,37.1,30.20,North,360,10.0,17.0,84,0.00,,---,0.23,VWS V14.01,2013-05-01 17:06:00,
2013-05-01 13:11:00,41.6,37.1,30.21,North,360,10.0,17.0,84,0.00,,---,0.23,VWS V14.01,2013-05-01 17:11:00,
2013-05-01 13:16:00,41.5,37.0,30.21,North,360,7.0,19.0,84,0.00,,---,0.23,VWS V14.01,2013-05-01 17:16:00,
2013-05-01 13:21:00,41.5,37.0,30.21,North,360,9.0,19.0,84,0.00,,---,0.23,VWS V14.01,2013-05-01 17:21:00,
2013-05-01 13:26:00,41.9,37.4,30.21,North,360,5.0,19.0,84,0.00,,---,0.23,VWS V14.01,2013-05-01 17:26:00,
2013-05-01 13:31:00,42.1,37.6,30.21,North,360,2.0,19.0,84,0.00,,---,0.23,VWS V14.01,2013-05-01 17:31:00,
2013-05-01 13:36:00,41.9,37.4,30.21,North,360,2.0,19.0,84,0.00,,---,0.23,VWS V14.01,2013-05-01 17:36:00,
2013-05-01 13:41:00,41.8,37.0,30.20,North,360,2.0,19.0,83,0.00,,---,0.23,VWS V14.01,2013-05-01 17:41:00,
2013-05-01 13:46:00,41.8,37.3,30.21,North,360,2.0,19.0,84,0.00,,---,0.23,VWS V14.01,2013-05-01 17:46:00,
2013-05-01 13:51:00,41.8,37.0,30.21,North,360,3.0,19.0,83,0.00,,---,0.23,VWS V14.01,2013-05-01 17:51:00,
2013-05-01 13:56:00,41.9,37.4,30.21,North,360,1.0,19.0,84,0.00,,---,0.23,VWS V14.01,2013-05-01 17:56:00,
2013-05-01 14:01:00,42.1,37.6,30.22,North,360,8.0,8.0,84,0.00,,---,0.23,VWS V14.01,2013-05-01 18:01:00,
2013-05-01 14:06:00,42.0,37.2,30.22,North,360,5.0,9.0,83,0.00,,---,0.23,VWS V14.01,2013-05-01 18:06:00,
2013-05-01 14:11:00,41.8,37.3,30.23,North,360,3.0,9.0,84,0.00,,---,0.23,VWS V14.01,2013-05-01 18:11:00,
2013-05-01 14:16:00,41.6,37.1,30.23,North,360,5.0,10.0,84,0.00,,---,0.23,VWS V14.01,2013-05-01 18:16:00,
2013-05-01 14:21:00,41.6,37.4,30.23,North,360,4.0,10.0,85,0.00,,---,0.23,VWS V14.01,2013-05-01 18:21:00,
2013-05-01 14:26:00,41.7,37.5,30.23,North,360,3.0,10.0,85,0.00,,---,0.23,VWS V14.01,2013-05-01 18:26:00,
2013-05-01 14:31:00,41.7,37.5,30.23,North,360,6.0,10.0,85,0.00,,---,0.23,VWS V14.01,2013-05-01 18:31:00,
2013-05-01 14:36:00,41.7,37.5,30.24,North,360,7.0,10.0,85,0.00,,---,0.23,VWS V14.01,2013-05-01 18:36:00,
2013-05-01 14:41:00,41.5,37.3,30.24,North,360,8.0,10.0,85,0.00,,---,0.23,VWS V14.01,2013-05-01 18:41:00,
2013-05-01 14:46:00,41.4,37.2,30.24,North,360,5.0,10.0,85,0.00,,---,0.23,VWS V14.01,2013-05-01 18:46:00,
2013-05-01 14:51:00,41.3,37.1,30.24,North,360,5.0,10.0,85,0.00,,---,0.23,VWS V14.01,2013-05-01 18:51:00,
2013-05-01 14:56:00,41.3,37.1,30.25,North,360,3.0,10.0,85,0.00,,---,0.23,VWS V14.01,2013-05-01 18:56:00,
2013-05-01 15:01:00,41.5,37.3,30.25,North,360,7.0,10.0,85,0.00,,---,0.23,VWS V14.01,2013-05-01 19:01:00,
2013-05-01 15:06:00,41.6,37.4,30.25,North,360,5.0,10.0,85,0.00,,---,0.23,VWS V14.01,2013-05-01 19:06:00,
2013-05-01 15:11:00,41.5,37.3,30.26,North,360,5.0,10.0,85,0.00,,---,0.23,VWS V14.01,2013-05-01 19:11:00,
2013-05-01 15:16:00,41.6,37.4,30.26,North,360,4.0,10.0,85,0.00,,---,0.23,VWS V14.01,2013-05-01 19:16:00,
2013-05-01 15:21:00,41.6,37.4,30.27,North,360,2.0,10.0,85,0.00,,---,0.23,VWS V14.01,2013-05-01 19:21:00,
2013-05-01 15:26:00,41.5,37.3,30.27,North,360,3.0,10.0,85,0.00,,---,0.23,VWS V14.01,2013-05-01 19:26:00,
2013-05-01 15:31:00,41.5,37.3,30.27,North,360,5.0,10.0,85,0.00,,---,0.23,VWS V14.01,2013-05-01 19:31:00,
2013-05-01 15:35:00,41.4,37.2,30.27,North,360,3.0,10.0,85,0.00,,---,0.23,VWS V14.01,2013-05-01 19:35:00,
2013-05-01 15:40:00,41.4,37.2,30.27,North,360,4.0,10.0,85,0.00,,---,0.23,VWS V14.01,2013-05-01 19:40:00,
2013-05-01 15:45:00,41.5,37.3,30.27,North,360,3.0,10.0,85,0.00,,---,0.23,VWS V14.01,2013-05-01 19:45:00,
2013-05-01 15:50:00,41.4,37.2,30.27,North,360,3.0,10.0,85,0.00,,---,0.23,VWS V14.01,2013-05-01 19:50:00,
2013-05-01 15:55:00,41.4,37.2,30.27,North,360,3.0,10.0,85,0.00,,---,0.23,VWS V14.01,2013-05-01 19:55:00,
2013-05-01 16:00:00,41.5,37.3,30.27,North,360,1.0,3.0,85,0.00,,---,0.23,VWS V14.01,2013-05-01 20:00:00,
2013-05-01 16:05:00,41.5,37.3,30.27,North,360,3.0,5.0,85,0.00,,---,0.23,VWS V14.01,2013-05-01 20:05:00,
2013-05-01 16:10:00,41.3,37.1,30.27,North,360,4.0,6.0,85,0.00,,---,0.23,VWS V14.01,2013-05-01 20:10:00,
2013-05-01 16:15:00,41.1,36.9,30.28,North,360,2.0,6.0,85,0.00,,---,0.23,VWS V14.01,2013-05-01 20:15:00,
2013-05-01 16:20:00,41.0,37.1,30.28,North,360,6.0,6.0,86,0.00,,---,0.23,VWS V14.01,2013-05-01 20:20:00,
2013-05-01 16:25:00,40.9,37.0,30.28,North,360,5.0,9.0,86,0.00,,---,0.23,VWS V14.01,2013-05-01 20:25:00,
2013-05-01 16:30:00,41.1,37.2,30.28,North,360,5.0,9.0,86,0.00,,---,0.23,VWS V14.01,2013-05-01 20:30:00,
2013-05-01 16:35:00,41.1,37.2,30.28,North,360,5.0,9.0,86,0.00,,---,0.23,VWS V14.01,2013-05-01 20:35:00,
2013-05-01 16:40:00,41.1,37.2,30.28,North,360,6.0,9.0,86,0.00,,---,0.23,VWS V14.01,2013-05-01 20:40:00,
2013-05-01 16:45:00,40.8,36.7,30.29,North,360,5.0,9.0,85,0.00,,---,0.23,VWS V14.01,2013-05-01 20:45:00,
2013-05-01 16:50:00,40.4,36.5,30.29,North,360,4.0,9.0,86,0.00,,---,0.23,VWS V14.01,2013-05-01 20:50:00,
2013-05-01 16:55:00,40.0,36.5,30.29,North,360,6.0,9.0,87,0.00,,---,0.23,VWS V14.01,2013-05-01 20:55:00,
2013-05-01 17:00:00,40.0,36.5,30.29,North,360,6.0,10.0,87,0.00,,---,0.23,VWS V14.01,2013-05-01 21:00:00,
2013-05-01 17:05:00,40.1,36.5,30.30,North,360,5.0,10.0,87,0.00,,---,0.23,VWS V14.01,2013-05-01 21:05:00,
2013-05-01 17:10:00,40.2,36.3,30.30,North,360,5.0,10.0,86,0.00,,---,0.23,VWS V14.01,2013-05-01 21:10:00,
2013-05-01 17:15:00,40.4,36.3,30.30,North,360,4.0,10.0,85,0.00,,---,0.23,VWS V14.01,2013-05-01 21:15:00,
2013-05-01 17:20:00,40.4,36.3,30.30,North,360,4.0,10.0,85,0.00,,---,0.23,VWS V14.01,2013-05-01 21:20:00,
2013-05-01 17:25:00,40.5,36.0,30.31,North,360,6.0,10.0,84,0.00,,---,0.23,VWS V14.01,2013-05-01 21:25:00,
2013-05-01 17:30:00,40.5,36.0,30.30,North,360,6.0,10.0,84,0.00,,---,0.23,VWS V14.01,2013-05-01 21:30:00,
2013-05-01 17:35:00,40.4,35.7,30.31,North,360,5.0,11.0,83,0.00,,---,0.23,VWS V14.01,2013-05-01 21:35:00,
2013-05-01 17:40:00,40.1,35.7,30.31,North,360,6.0,11.0,84,0.00,,---,0.23,VWS V14.01,2013-05-01 21:40:00,
2013-05-01 17:45:00,40.0,35.6,30.31,North,360,5.0,12.0,84,0.00,,---,0.23,VWS V14.01,2013-05-01 21:45:00,
2013-05-01 17:50:00,39.9,35.2,30.31,North,360,10.0,12.0,83,0.00,,---,0.23,VWS V14.01,2013-05-01 21:50:00,
2013-05-01 17:55:00,39.9,35.5,30.31,North,360,3.0,12.0,84,0.00,,---,0.23,VWS V14.01,2013-05-01 21:55:00,
2013-05-01 18:00:00,39.9,35.2,30.31,North,360,4.0,9.0,83,0.00,,---,0.23,VWS V14.01,2013-05-01 22:00:00,
2013-05-01 18:05:00,39.8,35.4,30.32,North,360,10.0,10.0,84,0.00,,---,0.23,VWS V14.01,2013-05-01 22:05:00,
2013-05-01 18:10:00,39.7,35.3,30.32,North,360,10.0,12.0,84,0.00,,---,0.23,VWS V14.01,2013-05-01 22:10:00,
2013-05-01 18:15:00,39.8,35.4,30.32,North,360,5.0,12.0,84,0.00,,---,0.23,VWS V14.01,2013-05-01 22:15:00,
2013-05-01 18:20:00,39.8,35.1,30.32,North,360,4.0,12.0,83,0.00,,---,0.23,VWS V14.01,2013-05-01 22:20:00,
2013-05-01 18:25:00,39.6,34.9,30.32,ENE,78,10.0,19.0,83,0.00,,---,0.23,VWS V14.01,2013-05-01 22:25:00,
2013-05-01 18:30:00,39.3,34.6,30.32,North,360,7.0,19.0,83,0.00,,---,0.23,VWS V14.01,2013-05-01 22:30:00,
2013-05-01 18:35:00,39.2,34.5,30.32,North,360,15.0,19.0,83,0.00,,---,0.23,VWS V14.01,2013-05-01 22:35:00,
2013-05-01 18:40:00,39.3,34.3,30.32,ENE,78,12.0,19.0,82,0.00,,---,0.23,VWS V14.01,2013-05-01 22:40:00,
2013-05-01 18:45:00,39.2,34.2,30.32,North,360,11.0,19.0,82,0.00,,---,0.23,VWS V14.01,2013-05-01 22:45:00,
2013-05-01 18:50:00,38.9,33.9,30.32,North,360,10.0,19.0,82,0.00,,---,0.23,VWS V14.01,2013-05-01 22:50:00,
2013-05-01 18:55:00,38.8,33.8,30.33,North,360,10.0,19.0,82,0.00,,---,0.23,VWS V14.01,2013-05-01 22:55:00,
2013-05-01 19:00:00,38.7,34.0,30.33,North,360,9.0,19.0,83,0.00,,---,0.23,VWS V14.01,2013-05-01 23:00:00,
2013-05-01 19:05:00,38.6,33.9,30.33,North,360,14.0,19.0,83,0.00,,---,0.23,VWS V14.01,2013-05-01 23:05:00,
2013-05-01 19:10:00,38.6,34.2,30.33,ENE,72,7.0,19.0,84,0.00,,---,0.23,VWS V14.01,2013-05-01 23:10:00,
2013-05-01 19:15:00,38.5,34.1,30.33,North,360,7.0,19.0,84,0.00,,---,0.23,VWS V14.01,2013-05-01 23:15:00,
2013-05-01 19:20:00,38.5,34.1,30.33,North,360,7.0,19.0,84,0.00,,---,0.23,VWS V14.01,2013-05-01 23:20:00,
2013-05-01 19:25:00,38.4,34.0,30.34,North,360,6.0,19.0,84,0.00,,---,0.23,VWS V14.01,2013-05-01 23:25:00,
2013-05-01 19:30:00,38.3,33.9,30.34,North,360,4.0,19.0,84,0.00,,---,0.23,VWS V14.01,2013-05-01 23:30:00,
2013-05-01 19:35:00,38.2,33.8,30.34,North,360,10.0,19.0,84,0.00,,---,0.23,VWS V14.01,2013-05-01 23:35:00,
2013-05-01 19:40:00,38.3,33.9,30.34,North,360,14.0,19.0,84,0.00,,---,0.23,VWS V14.01,2013-05-01 23:40:00,
2013-05-01 19:45:00,38.3,33.6,30.34,North,360,10.0,19.0,83,0.00,,---,0.23,VWS V14.01,2013-05-01 23:45:00,
2013-05-01 19:50:00,38.3,33.6,30.34,North,360,4.0,19.0,83,0.00,,---,0.23,VWS V14.01,2013-05-01 23:50:00,
2013-05-01 19:55:00,38.2,33.8,30.34,North,360,4.0,19.0,84,0.00,,---,0.23,VWS V14.01,2013-05-01 23:55:00,
2013-05-01 20:00:00,38.3,33.9,30.35,North,360,4.0,6.0,84,0.00,,---,0.23,VWS V14.01,2013-05-02 00:00:00,
2013-05-01 20:05:00,38.3,33.9,30.35,North,360,4.0,11.0,84,0.00,,---,0.23,VWS V14.01,2013-05-02 00:05:00,
2013-05-01 20:10:00,38.3,33.6,30.35,North,360,6.0,13.0,83,0.00,,---,0.23,VWS V14.01,2013-05-02 00:10:00,
2013-05-01 20:15:00,38.2,33.5,30.36,North,360,1.0,13.0,83,0.00,,---,0.23,VWS V14.01,2013-05-02 00:15:00,
2013-05-01 20:20:00,38.2,33.5,30.36,North,360,8.0,13.0,83,0.00,,---,0.23,VWS V14.01,2013-05-02 00:20:00,
2013-05-01 20:25:00,38.1,33.7,30.36,North,360,10.0,13.0,84,0.00,,---,0.23,VWS V14.01,2013-05-02 00:25:00,
2013-05-01 20:30:00,38.1,33.7,30.36,North,360,2.0,13.0,84,0.00,,---,0.23,VWS V14.01,2013-05-02 00:30:00,
2013-05-01 20:35:00,38.0,33.6,30.36,North,360,5.0,13.0,84,0.00,,---,0.23,VWS V14.01,2013-05-02 00:35:00,
2013-05-01 20:40:00,38.0,33.6,30.36,North,360,10.0,13.0,84,0.00,,---,0.23,VWS V14.01,2013-05-02 00:40:00,
2013-05-01 20:45:00,37.9,33.5,30.36,North,360,9.0,14.0,84,0.00,,---,0.23,VWS V14.01,2013-05-02 00:45:00,
2013-05-01 20:50:00,37.8,33.4,30.36,North,360,14.0,15.0,84,0.00,,---,0.23,VWS V14.01,2013-05-02 00:50:00,
2013-05-01 20:55:00,37.7,33.3,30.36,North,360,10.0,15.0,84,0.00,,---,0.23,VWS V14.01,2013-05-02 00:55:00,
2013-05-01 21:00:00,37.7,33.3,30.37,North,360,4.0,15.0,84,0.00,,---,0.23,VWS V14.01,2013-05-02 01:00:00,
2013-05-01 21:05:00,37.6,33.2,30.37,North,360,5.0,15.0,84,0.00,,---,0.23,VWS V14.01,2013-05-02 01:05:00,
2013-05-01 21:10:00,37.5,33.4,30.37,North,360,3.0,15.0,85,0.00,,---,0.23,VWS V14.01,2013-05-02 01:10:00,
2013-05-01 21:15:00,37.5,33.1,30.37,North,360,7.0,15.0,84,0.00,,---,0.23,VWS V14.01,2013-05-02 01:15:00,
2013-05-01 21:20:00,37.4,33.0,30.37,North,360,5.0,15.0,84,0.00,,---,0.23,VWS V14.01,2013-05-02 01:20:00,
2013-05-01 21:25:00,37.4,33.0,30.37,North,360,2.0,15.0,84,0.00,,---,0.23,VWS V14.01,2013-05-02 01:25:00,
2013-05-01 21:30:00,37.3,33.2,30.38,North,360,10.0,15.0,85,0.00,,---,0.23,VWS V14.01,2013-05-02 01:30:00,
2013-05-01 21:35:00,37.4,33.3,30.38,North,360,5.0,15.0,85,0.00,,---,0.23,VWS V14.01,2013-05-02 01:35:00,
2013-05-01 21:40:00,37.3,33.2,30.38,North,360,6.0,15.0,85,0.00,,---,0.23,VWS V14.01,2013-05-02 01:40:00,
2013-05-01 21:45:00,37.3,33.2,30.39,North,360,13.0,15.0,85,0.00,,---,0.23,VWS V14.01,2013-05-02 01:45:00,
2013-05-01 21:50:00,37.2,33.4,30.39,North,360,5.0,15.0,86,0.00,,---,0.23,VWS V14.01,2013-05-02 01:50:00,
2013-05-01 21:55:00,37.2,33.4,30.39,North,360,11.0,16.0,86,0.00,,---,0.23,VWS V14.01,2013-05-02 01:55:00,
2013-05-01 22:00:00,37.1,33.3,30.39,North,360,7.0,13.0,86,0.00,,---,0.23,VWS V14.01,2013-05-02 02:00:00,
2013-05-01 22:05:00,37.0,33.2,30.39,North,360,3.0,16.0,86,0.00,,---,0.23,VWS V14.01,2013-05-02 02:05:00,
2013-05-01 22:10:00,36.9,33.1,30.39,ENE,78,8.0,16.0,86,0.00,,---,0.23,VWS V14.01,2013-05-02 02:10:00,
2013-05-01 22:15:00,36.9,33.4,30.39,North,360,4.0,16.0,87,0.00,,---,0.23,VWS V14.01,2013-05-02 02:15:00,
2013-05-01 22:20:00,36.8,33.3,30.40,North,360,8.0,19.0,87,0.00,,---,0.23,VWS V14.01,2013-05-02 02:20:00,
2013-05-01 22:25:00,36.8,33.6,30.39,North,360,16.0,19.0,88,0.00,,---,0.23,VWS V14.01,2013-05-02 02:25:00,
2013-05-01 22:30:00,36.7,33.2,30.40,North,360,7.0,19.0,87,0.00,,---,0.23,VWS V14.01,2013-05-02 02:30:00,
2013-05-01 22:35:00,36.6,33.1,30.40,North,360,6.0,19.0,87,0.00,,---,0.23,VWS V14.01,2013-05-02 02:35:00,
2013-05-01 22:40:00,36.5,33.0,30.39,North,360,7.0,19.0,87,0.00,,---,0.23,VWS V14.01,2013-05-02 02:40:00,
2013-05-01 22:45:00,36.4,33.2,30.39,North,360,6.0,19.0,88,0.00,,---,0.23,VWS V14.01,2013-05-02 02:45:00,
2013-05-01 22:50:00,36.4,32.9,30.40,North,360,5.0,19.0,87,0.00,,---,0.23,VWS V14.01,2013-05-02 02:50:00,
2013-05-01 22:55:00,36.4,33.2,30.40,WNW,299,5.0,19.0,88,0.00,,---,0.23,VWS V14.01,2013-05-02 02:55:00,
2013-05-01 23:00:00,36.4,33.2,30.40,North,360,4.0,19.0,88,0.00,,---,0.23,VWS V14.01,2013-05-02 03:00:00,
2013-05-01 23:05:00,36.4,33.2,30.39,North,360,12.0,19.0,88,0.00,,---,0.23,VWS V14.01,2013-05-02 03:05:00,
2013-05-01 23:10:00,36.3,33.4,30.39,North,360,3.0,19.0,89,0.00,,---,0.23,VWS V14.01,2013-05-02 03:10:00,
2013-05-01 23:15:00,36.3,33.4,30.41,North,360,8.0,19.0,89,0.00,,---,0.23,VWS V14.01,2013-05-02 03:15:00,
2013-05-01 23:20:00,36.3,33.4,30.39,North,360,10.0,19.0,89,0.00,,---,0.23,VWS V14.01,2013-05-02 03:20:00,
2013-05-01 23:25:00,36.4,33.5,30.39,North,360,6.0,19.0,89,0.00,,---,0.23,VWS V14.01,2013-05-02 03:25:00,
2013-05-01 23:30:00,36.4,33.5,30.39,North,360,15.0,19.0,89,0.00,,---,0.23,VWS V14.01,2013-05-02 03:30:00,
2013-05-01 23:35:00,36.4,33.5,30.39,North,360,9.0,19.0,89,0.00,,---,0.23,VWS V14.01,2013-05-02 03:35:00,
2013-05-01 23:40:00,36.3,33.4,30.39,North,360,2.0,19.0,89,0.00,,---,0.23,VWS V14.01,2013-05-02 03:40:00,
2013-05-01 23:45:00,36.3,33.7,30.39,North,360,7.0,19.0,90,0.00,,---,0.23,VWS V14.01,2013-05-02 03:45:00,
2013-05-01 23:50:00,36.3,33.4,30.38,North,360,2.0,20.0,89,0.00,,---,0.23,VWS V14.01,2013-05-02 03:50:00,
2013-05-01 23:55:00,36.4,33.8,30.39,North,360,5.0,20.0,90,0.00,,---,0.23,VWS V14.01,2013-05-02 03:55:00,